Weather reports worldwide

Advertisment
Ioannina, Greece (16642): temperature & dewpoint: 16.04.2018 19:00:00 - 22.04.2018 19:00:00 (EEST)Ioannina, Greece (16642): reduced air pressure: 16.04.2018 19:00:00 - 22.04.2018 19:00:00 (EEST)Ioannina, Greece (16642): visibility: 16.04.2018 19:00:00 - 22.04.2018 19:00:00 (EEST)
Date & Time tt [°C] td [°C] ppp [hPa] vv [km]
22.04.2018 19:00:00 - - - -
22.04.2018 18:00:00 21,0 13,8 1015,4 10
22.04.2018 17:00:00 - - - -
22.04.2018 16:00:00 - - - -
22.04.2018 15:00:00 23,6 7,3 1015,9 10
22.04.2018 14:00:00 23,0 8,0 - 10
22.04.2018 13:00:00 22,0 10,0 - 10
22.04.2018 12:00:00 20,8 10,2 1018,3 10
22.04.2018 11:00:00 17,0 10,0 - 10
22.04.2018 10:00:00 14,0 10,0 - 10
22.04.2018 09:00:00 11,0 8,6 1020,6 10
22.04.2018 08:00:00 7,0 6,0 - 10
22.04.2018 07:00:00 - - - -
22.04.2018 06:00:00 - - - -
22.04.2018 05:00:00 - - - -
22.04.2018 04:00:00 - - - -
22.04.2018 03:00:00 - - - -
22.04.2018 02:00:00 - - - -
22.04.2018 01:00:00 - - - -
22.04.2018 00:00:00 - - - -
21.04.2018 23:00:00 - - - -
21.04.2018 22:00:00 15,0 10,0 - 10
21.04.2018 21:00:00 16,4 10,4 1019,4 10
21.04.2018 20:00:00 20,0 10,0 - 10
21.04.2018 19:00:00 21,0 6,0 - 10
21.04.2018 18:00:00 23,0 5,8 1016,5 10
21.04.2018 17:00:00 - - - -
21.04.2018 16:00:00 - - - -
21.04.2018 15:00:00 22,6 5,7 1018,2 10
21.04.2018 14:00:00 22,0 4,0 - 10
21.04.2018 13:00:00 20,0 5,0 - 10
21.04.2018 12:00:00 20,4 5,6 1019,6 10
21.04.2018 11:00:00 19,0 2,0 - 10
21.04.2018 10:00:00 18,0 3,0 - 10
21.04.2018 09:00:00 15,8 3,7 1019,3 10
21.04.2018 08:00:00 17,0 4,0 - 10
21.04.2018 07:00:00 - - - -
21.04.2018 06:00:00 - - - -
21.04.2018 05:00:00 - - - -
21.04.2018 04:00:00 - - - -
21.04.2018 03:00:00 - - - -
21.04.2018 02:00:00 - - - -
21.04.2018 01:00:00 - - - -
21.04.2018 00:00:00 - - - -
20.04.2018 23:00:00 - - - -
20.04.2018 22:00:00 21,0 4,0 - 10
20.04.2018 21:00:00 21,6 4,0 1013,5 10
20.04.2018 20:00:00 22,0 7,0 - 10
20.04.2018 19:00:00 24,0 7,0 - 10
20.04.2018 18:00:00 24,2 7,1 1012,2 10
20.04.2018 17:00:00 24,0 5,0 - 10
20.04.2018 16:00:00 25,0 5,0 - 10
20.04.2018 15:00:00 24,6 5,5 1014,0 10
20.04.2018 14:00:00 24,0 7,0 - 10
20.04.2018 13:00:00 23,0 9,0 - 10
20.04.2018 12:00:00 19,8 10,7 1015,8 10
20.04.2018 11:00:00 17,0 11,0 - 10
20.04.2018 10:00:00 15,0 11,0 - 10
20.04.2018 09:00:00 12,4 10,1 1018,9 10
20.04.2018 08:00:00 10,0 10,0 - 10
20.04.2018 07:00:00 - - - -
20.04.2018 06:00:00 - - - -
20.04.2018 05:00:00 - - - -
20.04.2018 04:00:00 - - - -
20.04.2018 03:00:00 - - - -
20.04.2018 02:00:00 - - - -
20.04.2018 01:00:00 - - - -
20.04.2018 00:00:00 - - - -
19.04.2018 23:00:00 - - - -
19.04.2018 22:00:00 18,0 12,0 - 10
19.04.2018 21:00:00 19,4 13,1 1019,0 10
19.04.2018 20:00:00 21,0 12,0 - 10
19.04.2018 19:00:00 22,0 10,0 - 10
19.04.2018 18:00:00 22,8 10,1 1018,3 10
19.04.2018 17:00:00 23,0 10,0 - 10
19.04.2018 16:00:00 22,0 10,0 - 10
19.04.2018 15:00:00 22,0 8,0 1020,6 10
19.04.2018 14:00:00 19,0 5,0 - 10
19.04.2018 13:00:00 20,0 6,0 - 10
19.04.2018 12:00:00 19,8 6,3 1022,6 10
19.04.2018 11:00:00 20,0 9,0 - 10
19.04.2018 10:00:00 17,0 11,0 - 10
19.04.2018 09:00:00 14,6 11,6 1023,6 10
19.04.2018 08:00:00 13,0 11,0 - 10
19.04.2018 07:00:00 - - - -
19.04.2018 06:00:00 - - - -
19.04.2018 05:00:00 - - - -
19.04.2018 04:00:00 - - - -
19.04.2018 03:00:00 - - - -
19.04.2018 02:00:00 - - - -
19.04.2018 01:00:00 - - - -
19.04.2018 00:00:00 - - - -
18.04.2018 23:00:00 - - - -
18.04.2018 22:00:00 17,0 14,0 - 10
18.04.2018 21:00:00 18,0 14,2 1020,9 10
18.04.2018 20:00:00 21,0 15,0 - 10
18.04.2018 19:00:00 22,0 13,0 - 10
18.04.2018 18:00:00 23,0 10,4 1018,6 10
18.04.2018 17:00:00 - - - -
18.04.2018 16:00:00 - - - -
18.04.2018 15:00:00 24,4 9,0 1018,9 10
18.04.2018 14:00:00 22,0 8,0 - 10
18.04.2018 13:00:00 20,0 9,0 - 10
18.04.2018 12:00:00 17,4 9,4 1020,3 10
18.04.2018 11:00:00 16,0 11,0 - 10
18.04.2018 10:00:00 14,0 11,0 - 10
18.04.2018 09:00:00 12,8 12,1 1021,3 4,0
18.04.2018 08:00:00 13,0 12,0 - 3,0
18.04.2018 07:00:00 - - - -
18.04.2018 06:00:00 - - - -
18.04.2018 05:00:00 - - - -
18.04.2018 04:00:00 - - - -
18.04.2018 03:00:00 - - - -
18.04.2018 02:00:00 - - - -
18.04.2018 01:00:00 - - - -
18.04.2018 00:00:00 - - - -
17.04.2018 23:00:00 - - - -
17.04.2018 22:00:00 16,0 13,0 - 4,5
17.04.2018 21:00:00 17,2 12,9 1017,0 5
17.04.2018 20:00:00 18,0 12,0 - 5
17.04.2018 19:00:00 21,0 13,0 - 4,0
17.04.2018 18:00:00 21,6 11,7 1014,7 4,0
17.04.2018 17:00:00 - - - -
17.04.2018 16:00:00 - - - -
17.04.2018 15:00:00 22,0 10,9 1015,0 10
17.04.2018 14:00:00 21,0 12,0 - 10
17.04.2018 13:00:00 20,0 13,0 - 10
17.04.2018 12:00:00 19,0 14,5 1016,6 8
17.04.2018 11:00:00 16,0 13,0 - 6
17.04.2018 10:00:00 14,0 12,0 - 5
17.04.2018 09:00:00 12,0 10,5 1017,9 3,5
17.04.2018 08:00:00 - - - -
17.04.2018 07:00:00 - - - -
17.04.2018 06:00:00 - - - -
17.04.2018 05:00:00 - - - -
17.04.2018 04:00:00 - - - -
17.04.2018 03:00:00 - - - -
17.04.2018 02:00:00 - - - -
17.04.2018 01:00:00 - - - -
17.04.2018 00:00:00 - - - -
16.04.2018 23:00:00 - - - -
16.04.2018 22:00:00 16,0 13,0 - 10
16.04.2018 21:00:00 16,6 13,8 1012,9 10
16.04.2018 20:00:00 18,0 13,0 - 7
16.04.2018 19:00:00 19,0 13,0 - 5

tt = temperature
td = dewpoint
ppp = reduced air pressure
vv = visibility

Next stations